To NAV CANADA Home Page Login to a new session Search on AWWS site Feedback and Comments Disclaimer Vers la page française équivalente Tips FAQ What's new on the site To the Forecasts and Observations / NOTAM section To "File a Flight Plan" website Publications and other links Update of the User's profile FIC Telephone Numbers My Weather Data Folder Route Weather Data Regional Weather Data Local Weather Data To the Forecasts and Observations / NOTAM section
Request Generated 05/28/2015 at 21:47:17 UTC . Weather information available at that time is displayed.

METAR/TAF

SANIKILUAQ/NU    

METAR CYSK 282100Z 29011KT 15SM SCT030 M00/M08 A3037 RMK SC3 SLP288=
METAR CYSK 282000Z 30012KT 15SM FEW020 M00/M09 A3036 RMK SC2 SLP283=
METAR CYSK 281900Z 34010G16KT 15SM FEW020 M00/M11 A3034 RMK SC2
SLP278=

CYSK - No TAF is issued for this station

Your time UTC time
Weather data provided by Environment Canada and NAV CANADA